Dewpoint
24 25 25 26 27 29 46 51 51 54 55 53 54 54 58 57 54 53 51 50 52 54 54 60 63 63 64 64 64 64 65 67 66 67 67 64 66 68 68 70 70 68 69 70
23 24 25 27 27 35 51 51 51 52 55 51 51 52 54 58 58 58 55 51 51 54 55 60 61 62 63 63 64 65 65 66 66 67 68 68 67 69 68 69 70 70 68 69
20 21 22 23 25 49 49 48 50 49 52 54 52 50 52 57 59 58 58 58 56 53 57 59 58 59 62 64 66 66 65 67 69 69 68 68 69 69 67 69 69 69 71 70
15 16 17 18 23 48 46 51 50 50 48 44 52 44 53 56 56 57 57 58 58 56 58 59 59 59 63 64 66 66 67 68 69 68 67 66 65 65 67 67 68 68 66 70
17 15 10 12 15 46 50 51 50 50 48 49 49 45 51 56 54 55 55 57 58 59 58 58 59 59 63 65 66 67 68 68 69 68 67 66 66 65 68 68 67 66 66 70
22 23 16 11 37 50 51 50 49 48 47 42 45 45 47 52 53 54 55 57 57 58 57 59 59 60 61 64 67 68 67 67 69 68 68 67 66 66 67 67 67 67 68 69
21 21 32 51 50 50 50 45 40 39 39 38 48 46 45 52 53 53 53 57 58 59 60 58 58 60 61 63 66 67 67 67 68 68 68 67 68 67 66 66 67 68 68 67
18 17 15 45 48 47 47 40 37 32 37 41 49 45 45 52 52 53 53 56 58 59 60 59 58 61 62 65 65 66 67 66 69 68 67 67 69 68 67 67 67 68 67 67
18 20 21 21 45 47 46 38 40 40 43 41 45 48 49 50 54 53 54 55 57 59 60 60 60 62 63 65 67 67 67 67 69 68 67 68 68 69 69 69 69 68 68 69
22 17 19 24 25 42 40 39 35 38 36 37 42 43 42 44 49 54 56 55 57 59 60 61 62 64 66 66 67 70 69 68 69 69 69 68 69 69 69 70 69 69 69 69
29 21 22 26 24 21 21 26 29 34 37 36 39 40 45 42 46 54 55 56 57 57 58 62 65 67 67 66 67 67 68 69 69 69 70 68 70 70 70 68 68 68 67 66
29 27 24 24 27 25 20 19 24 22 22 35 37 36 46 47 48 52 54 55 55 56 58 63 64 64 64 64 63 63 66 68 69 70 70 70 70 69 69 69 69 68 67 66
28 25 24 24 27 28 26 26 20 19 21 22 27 36 47 54 51 50 52 55 56 56 60 63 64 63 63 62 61 63 66 66 69 70 69 70 69 67 69 68 68 69 69 69
30 26 26 24 26 30 28 29 30 17 15 15 20 31 48 50 54 56 55 57 60 58 60 62 64 64 64 64 64 65 66 67 69 69 69 69 67 67 69 69 68 67 69 68
29 23 26 26 38 37 36 37 37 34 29 16 22 39 50 52 59 61 62 62 61 58 60 61 64 64 64 65 67 66 68 69 69 68 67 67 68 69 68 68 68 68 67 67
34 30 36 37 35 37 36 39 42 44 43 50 49 47 57 59 60 60 61 61 61 60 61 63 64 64 65 65 65 67 68 68 67 66 66 66 67 66 66 66 67 67 67 67
38 36 35 34 37 36 35 39 43 44 46 47 45 49 56 56 57 58 60 62 63 63 64 63 64 65 66 66 66 63 67 68 67 66 67 68 67 67 67 68 68 67 66 67
38 35 38 32 34 29 39 44 41 43 45 51 53 53 53 51 54 59 61 61 61 62 61 61 60 60 61 62 64 66 68 68 67 67 67 68 68 68 67 67 66 65 66 66
37 36 37 31 33 38 39 39 40 40 41 51 53 54 55 56 59 59 61 61 61 61 60 60 59 59 59 60 61 63 65 65 66 67 68 67 67 66 65 65 65 65 65 63
37 40 35 37 31 29 38 41 44 44 38 49 53 53 55 56 53 55 59 59 58 58 58 57 57 57 58 58 59 60 59 61 61 61 63 64 64 63 62 62 61 62 66 64
35 36 33 38 34 35 42 40 43 36 38 50 52 52 56 54 56 58 59 57 57 56 56 56 55 55 55 57 57 58 57 57 57 57 58 59 60 60 59 59 59 62 63 60
37 35 38 35 33 29 41 42 36 41 50 52 52 52 54 52 52 57 58 56 55 54 54 54 53 53 53 54 55 55 55 55 55 55 56 56 56 56 56 56 57 59 62 60
36 39 38 41 35 39 43 43 46 45 53 52 54 56 53 51 54 59 57 56 55 54 53 53 52 52 52 52 51 51 51 50 51 50 50 51 51 52 53 52 52 53 56 59
38 40 39 37 38 41 43 40 40 40 40 46 52 57 59 58 58 57 56 55 54 53 52 51 51 50 50 50 50 49 49 49 48 46 47 47 48 47 44 46 46 45 45 47
33 32 37 39 39 42 39 37 35 37 39 43 46 52 57 57 56 56 55 55 55 53 52 52 52 52 51 51 48 49 49 48 47 46 45 45 45 42 40 40 40 37 36 39
34 29 34 35 39 36 37 38 36 35 38 42 42 45 53 56 55 55 54 54 54 53 53 53 52 51 51 51 47 48 48 50 50 48 48 48 48 47 39 37 35 34 33 32
Wind_Speed
7 6 10 12 15 6 2 9 13 5 3 6 11 14 2 1 16 15 16 23 27 26 28 30 28 22 21 19 20 21 18 15 15 9 8 7 9 8 7 6 10 9 5 5
4 11 18 15 10 12 13 19 6 3 3 1 3 15 11 8 3 5 12 21 25 19 25 26 27 23 23 23 22 22 20 17 12 10 5 5 5 3 5 3 4 3 4 6
13 18 13 13 10 12 13 10 12 6 7 2 7 8 11 8 8 5 3 7 12 18 27 26 27 23 23 24 22 21 20 16 14 14 12 7 7 4 3 1 1 3 3 2
11 22 17 14 17 10 5 14 19 12 3 1 2 7 9 12 17 5 9 7 12 17 23 27 25 24 25 23 22 22 22 18 15 14 11 10 8 8 6 6 4 3 2 1
17 13 12 16 20 15 8 11 22 10 2 4 5 2 1 6 14 18 13 14 12 14 25 27 26 24 21 22 22 20 22 19 16 14 12 10 9 5 5 5 6 5 3 2
20 16 13 11 2 19 29 24 16 11 2 1 7 2 3 10 23 26 17 17 15 12 16 21 22 22 20 19 19 19 20 20 17 16 12 13 11 10 9 7 8 8 4 2
13 9 6 28 28 13 8 11 6 2 3 4 12 5 9 15 19 23 18 16 16 12 13 16 23 23 20 23 21 21 21 19 18 17 16 13 12 15 13 12 9 8 7 5
7 9 4 15 19 18 25 9 10 8 6 3 13 4 8 6 17 27 21 20 20 15 11 12 19 23 22 22 21 20 22 19 18 19 16 14 14 13 12 11 11 11 10 9
3 6 13 11 13 21 11 11 6 9 3 4 1 6 13 7 2 10 23 23 21 17 14 13 17 19 19 20 20 22 24 22 20 21 19 17 15 13 13 12 10 11 8 8
8 16 12 11 6 20 21 14 5 2 7 4 3 1 12 17 9 11 19 24 24 23 16 14 17 22 18 19 14 9 18 23 20 19 20 18 16 12 9 11 13 12 11 9
9 6 12 3 1 14 4 6 4 6 7 6 10 8 16 20 17 20 20 22 27 29 24 17 14 16 20 18 16 8 5 19 21 20 18 17 16 14 11 12 11 10 8 7
8 1 4 7 14 12 13 12 7 8 4 4 7 9 15 22 20 22 21 19 20 27 23 20 21 21 19 19 13 13 11 12 16 13 14 16 10 10 11 11 13 11 10 7
10 5 6 11 8 12 7 9 6 5 4 8 7 6 9 6 3 4 14 15 15 16 21 21 22 22 20 17 15 19 11 15 16 8 13 10 11 10 10 11 8 8 7 11
2 2 2 2 8 6 8 21 18 1 2 4 7 7 5 9 4 5 8 10 10 18 23 21 18 19 15 16 17 16 15 16 15 20 20 21 19 16 11 10 9 10 4 2
1 3 3 0 10 10 17 22 21 11 8 4 8 11 15 17 16 14 16 13 15 20 19 20 15 15 15 14 8 12 11 15 17 18 18 17 13 11 9 8 6 3 3 2
4 3 3 2 7 12 6 28 19 15 17 5 9 8 7 20 20 19 20 22 18 19 15 13 16 16 16 13 14 11 12 13 12 14 13 13 13 10 8 7 6 6 4 3
3 2 4 2 10 6 7 14 16 4 17 8 7 3 16 17 18 16 14 16 19 20 17 14 14 12 13 12 15 21 15 17 17 17 14 13 12 10 6 6 6 3 4 6
2 5 3 2 7 6 4 2 2 11 17 17 14 10 4 13 11 10 14 17 14 15 16 16 11 9 8 7 9 14 15 18 17 16 16 13 12 11 10 8 7 6 4 12
7 6 5 2 2 0 2 4 5 7 9 14 13 16 13 14 24 18 14 14 15 13 12 12 10 8 6 4 4 10 15 15 14 13 15 15 17 15 12 8 7 6 10 13
12 14 6 3 4 6 5 4 5 1 5 4 7 16 20 14 16 7 10 15 17 17 12 10 10 8 8 6 5 12 14 16 15 12 13 12 14 14 13 10 7 4 10 13
4 5 3 1 1 3 7 4 8 3 0 10 7 13 25 25 14 7 9 12 13 13 12 10 8 9 7 5 8 13 11 15 11 11 13 12 11 11 10 8 6 7 13 13
3 5 5 2 2 2 9 4 7 3 5 14 9 13 19 24 17 8 9 9 12 13 10 8 10 9 6 5 9 11 11 7 8 9 11 10 8 6 7 8 7 8 14 15
4 8 13 12 5 4 6 7 9 9 14 7 13 12 19 19 17 18 16 15 14 12 11 8 9 9 7 8 7 11 7 8 8 9 10 8 7 6 6 6 5 5 7 11
5 8 6 4 3 5 4 20 13 15 17 9 13 16 21 23 20 16 18 15 12 11 13 12 11 8 5 6 9 11 9 7 8 9 7 6 8 8 7 7 7 7 5 5
5 6 9 3 4 1 6 15 17 18 19 21 21 12 15 18 18 21 19 18 18 17 15 13 12 10 8 8 8 7 8 8 7 7 7 6 6 6 6 6 6 6 3 2
4 6 7 11 11 5 11 12 15 15 15 16 20 21 10 17 20 15 14 12 14 15 16 14 13 11 10 9 11 10 9 7 4 4 4 4 5 6 5 4 4 9 4 4
Wind_Direction
267 201 224 232 237 256 307 64 107 100 276 54 3 319 34 120 172 170 180 155 151 155 159 153 159 154 153 155 155 150 152 150 136 119 123 139 131 151 169 199 167 158 171 121
265 236 231 236 264 275 120 120 103 77 252 151 250 275 316 318 97 100 122 160 155 151 153 151 155 157 156 159 167 157 163 160 148 137 137 144 149 154 162 206 163 135 146 132
221 240 240 233 252 155 150 143 164 158 162 176 141 261 277 281 269 170 72 132 137 148 153 157 159 160 157 158 164 165 163 158 147 133 127 109 95 101 130 128 179 79 17 126
236 254 246 242 220 158 141 146 131 138 136 260 55 220 201 231 251 250 180 192 145 138 171 163 166 165 167 165 163 167 163 160 151 153 151 160 168 165 185 178 208 222 92 47
266 291 264 242 229 176 148 132 102 109 153 169 217 170 47 196 240 234 215 201 183 144 174 173 174 170 169 163 167 168 164 167 164 164 172 177 184 184 170 193 216 245 267 33
271 267 244 240 218 141 132 104 85 93 12 242 224 209 262 217 223 227 234 188 191 173 164 178 176 173 169 163 167 168 173 172 171 168 176 189 177 175 180 203 207 209 223 117
329 296 95 103 94 104 131 110 78 36 243 244 170 250 234 194 230 236 226 171 184 184 155 159 172 177 173 171 171 172 177 183 177 174 178 187 193 186 189 201 210 192 191 199
289 307 137 172 156 178 181 164 160 165 205 155 156 232 266 187 230 226 219 185 178 185 168 164 167 176 178 173 175 176 178 187 186 181 182 185 182 193 205 197 191 213 207 195
257 266 301 305 159 144 215 223 165 105 64 131 193 322 281 295 293 193 187 179 183 185 179 180 157 160 166 163 176 182 180 188 189 184 180 184 187 191 205 200 184 208 208 200
247 262 286 300 128 196 161 182 153 82 164 129 98 198 245 269 244 192 187 178 179 182 185 181 165 157 152 145 129 159 185 189 194 186 189 189 189 190 174 177 188 201 217 210
352 186 272 310 35 235 155 157 107 158 154 152 161 230 233 223 220 180 185 185 185 176 191 165 152 155 158 159 152 155 269 195 196 192 189 188 182 178 169 183 193 193 207 227
339 42 302 279 300 256 186 196 175 211 225 208 187 232 221 221 207 171 183 189 192 179 165 158 158 157 163 180 186 201 243 234 201 193 179 181 175 176 177 185 199 200 211 216
338 13 349 341 352 20 41 1 330 145 112 211 211 249 230 0 90 216 168 175 165 142 151 165 165 178 190 182 193 214 222 227 202 185 174 201 216 199 200 190 169 166 211 236
306 64 95 337 304 292 339 341 351 3 232 283 231 231 149 115 159 170 166 158 157 167 163 174 169 182 187 185 197 188 214 214 191 175 187 197 201 204 203 187 184 174 204 196
69 275 281 23 17 13 44 16 3 18 344 247 286 211 137 147 129 131 132 137 171 180 179 185 154 172 186 172 175 197 204 184 170 164 175 181 184 173 166 155 157 249 271 313
13 305 46 13 335 23 36 18 24 30 1 10 149 187 173 144 133 138 149 153 161 174 180 172 166 174 181 178 176 185 195 181 164 152 170 175 177 185 188 174 177 179 210 215
65 86 43 163 346 353 34 4 26 63 18 316 209 246 159 164 162 152 143 142 143 135 135 132 141 159 161 171 178 216 209 175 178 178 179 171 168 184 189 175 158 152 188 149
175 104 90 323 357 180 181 297 77 59 23 14 26 76 48 41 56 99 113 125 121 114 110 107 101 94 75 86 149 191 199 179 174 163 168 165 163 152 128 125 125 110 111 138
174 131 85 96 77 14 299 4 20 27 17 7 30 35 58 87 79 47 61 89 99 89 87 100 107 110 89 77 92 124 135 136 139 146 148 152 146 134 128 136 131 124 130 132
74 76 102 151 175 194 189 311 359 3 53 28 56 69 62 67 85 64 66 97 100 101 100 104 110 110 109 84 76 100 101 118 117 109 115 122 128 133 133 132 117 105 151 141
13 33 87 138 237 268 254 318 349 90 344 144 140 107 85 78 81 75 61 80 96 105 105 101 97 100 109 114 112 106 108 109 107 100 97 102 113 126 135 139 138 133 137 136
179 104 32 323 291 223 192 141 98 308 145 144 157 126 129 129 113 115 105 97 99 104 106 102 110 101 87 75 104 108 106 101 104 108 108 105 96 102 130 136 129 119 149 147
164 165 169 201 236 261 302 93 99 136 147 164 135 129 129 132 148 157 146 142 135 133 117 114 109 99 95 93 106 118 122 117 115 109 103 102 97 78 59 91 81 113 133 148
211 158 140 163 196 156 162 97 96 84 102 123 152 152 151 156 164 150 141 138 127 117 117 121 116 116 114 116 128 136 142 134 123 114 111 105 107 88 69 69 75 92 75 90
187 143 150 219 217 65 119 111 99 77 76 80 85 155 204 161 159 153 150 162 161 159 151 151 147 146 148 147 143 150 152 146 144 142 141 137 125 119 109 79 61 88 72 71
189 169 139 186 187 159 164 142 117 102 94 91 81 67 118 154 157 157 157 162 158 155 156 160 165 163 159 155 152 164 171 167 169 162 157 169 162 165 157 132 108 39 60 15